Regional Weather Roundup
Issued by NWS

Home | Current Version | Previous Version | Graphics & Text | Print | Product List | Glossary On
Versions: 1 2 3 4 5 6 7 8 9 10 11 12 13 14 15 16 17 18 19 20 21 22 23 24 25 26 27 28 29 30 31 32 33 34 35 36 37 38 39 40 41 42 43 44 45 46 47 48 49 50
000
ASUS45 KTFX 302004
RWRMT
MONTANA HOURLY WEATHER ROUNDUP
NATIONAL WEATHER SERVICE GREAT FALLS MT
204 PM MDT TUE SEP 30 2014

NOTE: "FAIR" INDICATES FEW OR NO CLOUDS BELOW 12000 FEET WITH NO
SIGNIFICANT WEATHER AND/OR OBSTRUCTIONS TO VISIBILITY.

* THESE STATIONS ARE NOT UNDER NWS QUALITY CONTROL. THEY DO NOT
   REPORT WEATHER SUCH AS PRECIPITATION OR FOG.

MTZ001>007-043-302100-
WEST OF THE DIVIDE
CITY           SKY/WX    TMP DP  RH WIND       PRES   REMARKS
KALISPELL      LGT RAIN  54  46  74 S10       29.83R
MISSOULA       CLOUDY    55  37  51 W18G29    29.91R
BUTTE          CLOUDY    50  37  61 NW17G22   29.87R
MULLAN PASS    FOG       36  36 100 VRB5      29.93S VSB M1/4 WCI  32
* ESSEX        N/A       49  43  80 W1         N/A
* LINCOLN      N/A       53  39  59 SW5G15     N/A
* LOOKOUT PASS N/A       44  38  80 E4G15      N/A
* POLSON       N/A       53  44  72 SW2G9      N/A
* RONAN APT    PTSUNNY   54  41  62 SW7        N/A
* SEELEY LAKE  N/A       52  41  66 SW9G16     N/A
* THOMP F APT  PTCLDY    43  41  93 SW1        N/A
* YAAK HILL    N/A       61  38  43 SW4G9      N/A
$$

MTZ008-052>055-302100-
SOUTHWEST MONTANA
CITY           SKY/WX    TMP DP  RH WIND       PRES   REMARKS
BOZEMAN        CLOUDY    54  45  72 SW7       29.82F
DILLON         CLOUDY    55  41  59 SW13      29.84F
W YELLOWSTONE  CLOUDY    45 N/A N/A SW16G24   29.89F
* THREE FORKS  CLOUDY    57  30  36 N/A        N/A
* BOULDER HILL N/A       50  31  48 NE4G11     N/A
* MONIDA PASS  N/A       45  41  86 SW1        N/A
* RAYNOLDS PAS N/A       43  28  56 S8         N/A
* WHITEHALL    N/A       56  43  62 SW10G17    N/A
* WISE RIVER   N/A       50  36  59 W14G20     N/A
$$

MTZ009>010-012-014-046-048-049-054-302100-
EAST SLOPES AND CENTRAL MONTANA
CITY           SKY/WX    TMP DP  RH WIND       PRES   REMARKS
CUT BANK       LGT RAIN  54  48  80 NW13      29.74S
GREAT FALLS    CLOUDY    61  41  48 SW16      29.70F
HELENA         CLOUDY    59  36  42 W15G24    29.79F
MALMSTROM AFB  CLOUDY    63  45  52 SW22      29.71F
* CONRAD       PTSUNNY   63  43  48 W20G33     N/A
* DEARBORN     N/A       60  42  52 S16G26     N/A
* EAST GLACIER N/A       50  39  66 W12        N/A
* MONARCH      N/A       51  35  54 W17G23     N/A
* PENDROY      N/A       56  38  51 NW11G19    N/A
* ROGERS PASS  N/A       46  39  77 SE14G24    N/A
* SAINT MARY   N/A       50  46  86 N4G14      N/A
* SWEET GRASS  N/A       53  49  86 VRB18G29    N/A
$$

MTZ011-013-016-021-035-040-045-047-050-051-302100-
NORTH CENTRAL MONTANA
CITY           SKY/WX    TMP DP  RH WIND       PRES   REMARKS
HAVRE          PTSUNNY   70  43  38 W23       29.61S
LEWISTOWN      PTSUNNY   57  46  67 NW8       29.70F
* CHESTER      N/A       63  42  46 NW15G24    N/A
* DENTON       N/A       62  44  52 W16G24     N/A
* GEYSER       N/A       60  40  48 W17G29     N/A
* JUDITH GAP   N/A       55  44  67 NE2        N/A
* LOMA         N/A       67  43  42 W7         N/A
$$

MTZ017>020-022>027-061-062-302100-
NORTHEAST MONTANA
CITY           SKY/WX    TMP DP  RH WIND       PRES   REMARKS
GLASGOW        CLOUDY    63  50  63 W3        29.56F
GLENDIVE       CLOUDY    57  54  90 NW12      29.56F
JORDAN         CLOUDY    66  48  52 NW15G21   29.59F
SIDNEY         CLOUDY    55  54  96 E6        29.57F
WOLF POINT     CLOUDY    61  52  72 CALM      29.58F
* BEAVER HILL  N/A       54  53  96 NW9G16     N/A
* CIRCLE       N/A       61  54  78 N/A        N/A
* LINDSAY DVD  N/A       56  52  87 NW6        N/A
* NAVAJO       N/A       56  53  90 SW5        N/A
$$

MTZ028>042-056>058-302100-
SOUTHCENTRAL AND SOUTHEAST MONTANA
CITY           SKY/WX    TMP DP  RH WIND       PRES   REMARKS
BAKER          LGT RAIN  55  54  96 NW15G20   29.53F VSB 3
BILLINGS       CLOUDY    61  43  52 NW8       29.69F
LIVINGSTON     LGT RAIN  55  43  64 W22       29.78S
MILES CITY     CLOUDY    61  48  62 NW9       29.58F
* LAUREL APT   CLOUDY    63  39  41 W10G17     N/A
* ROUNDUP APT  CLOUDY    57  46  67 N/A        N/A
* ALZADA       N/A       53  52  96 W16        N/A
* HYSHAM       N/A       58  41  53 W4         N/A
* LAME DEER    N/A       55  44  67 NW14G19    N/A
* REED POINT   N/A       63  40  43 W19G34     N/A
* ROSCOE HILL  N/A       58  26  29 W4G18      N/A
$$

REGIONAL REPORTS...DAKOTAS
CITY           SKY/WX    TMP DP  RH WIND       PRES   REMARKS
WILLISTON      CLOUDY    55  52  90 E9        29.57F
DICKINSON      FOG       54  52  93 E14       29.50F
BEACH          N/A       52  52 100 NE6       29.54F
CROSBY         RAIN      50  50 100 E7        29.60F VSB 1 1/2
TIOGA          LGT RAIN  50  50 100 E12G20    29.62F VSB 3
WATFORD CITY   FOG       54  54 100 E15       29.55F
BISMARCK       FOG       54  54 100 E18       29.55F
GRAND FORKS    CLOUDY    61  45  56 SE18G24   29.76F
FARGO          PTSUNNY   61  45  56 SE16G35   29.74F
BUFFALO SD     CLOUDY    54  52  93 NW12      29.44F
RAPID CITY     PTSUNNY   63  48  58 NW25G33   29.52R
$$

REGIONAL REPORTS...WYOMING/IDAHO/WASHINGTON
CITY           SKY/WX    TMP DP  RH WIND       PRES   REMARKS
GILLETTE       CLOUDY    55  45  69 NW18      29.66S
SHERIDAN       CLOUDY    63  39  41 NW25G33   29.66F
CODY           CLOUDY    55  43  64 SW9       29.76S
YELLOWSTONE LA CLOUDY    41  37  86 W5        29.93S
SALMON         CLOUDY    54  45  72 NW3       29.89S
MULLAN PASS    FOG       36  36 100 VRB5      29.93S VSB M1/4 WCI  32
SAND POINT     PTSUNNY   55  45  69 SW7       29.88S
SPOKANE        PTSUNNY   63  32  31 W6        29.90R
$$

REGIONAL REPORTS...ALBERTA
CITY           SKY/WX    TMP DP  RH WIND       PRES   REMARKS
CALGARY        CLOUDY    50  39  66 N15       29.77S

$$




USA.gov is the U.S. government's official web portal to all federal, state and local government web resources and services.